This demonstration page uses our WeatherBlox Daily Observations layout. Learn more.

Hourly Observations for February 14, 2019

Temp ( °F °C ) Dew Point ( °F °C ) Humidity (%) Winds ( mph kmh ) Pressure ( in mb ) Visibility ( mi km ) Precip ( " mm )
12:15 am 00:15 Clear 35 1.4 27 -2.6 75 75 NW 6 9 29.54 1000 10 16.0934 0 0
12:35 am 00:35 Clear 33 0.5 27 -2.7 79 79 WNW 3 6 29.55 1001 10 16.0934 0 0
12:55 am 00:55 Partly Cloudy 32 0.1 27 -2.6 82 82 W 3 6 29.55 1001 10 16.0934 0 0
1:15 am 01:15 Cloudy 33 0.4 28 -2.4 82 82 SSW 3 6 29.53 1000 10 16.0934 0 0
1:35 am 01:35 Partly Cloudy 30 -0.9 25 -3.7 82 82 Calm 29.55 1001 10 16.0934 0 0
1:55 am 01:55 Clear 30 -1.3 26 -3.2 87 87 WNW 6 9 29.57 1001 10 16.0934 0 0
2:15 am 02:15 Clear 30 -0.9 26 -3.3 84 84 WNW 6 9 29.55 1001 10 16.0934 0 0
2:35 am 02:35 Clear 31 -0.4 26 -3.2 82 82 WNW 6 9 29.54 1000 10 16.0934 0 0
2:55 am 02:55 Clear 31 -0.6 26 -3.5 81 81 WNW 6 9 29.55 1001 10 16.0934 0 0
3:15 am 03:15 Clear 30 -1 26 -3.5 83 83 NW 7 11 29.54 1000 10 16.0934 0 0
3:35 am 03:35 Clear 31 -0.4 27 -2.7 85 85 WNW 10 17 29.56 1001 10 16.0934 0 0
3:55 am 03:55 Clear 36 2 29 -1.7 77 77 NNW 10 17 29.52 1000 10 16.0934 0 0
4:15 am 04:15 Clear 36 2 28 -2 75 75 NNW 10 17 29.53 1000 10 16.0934 0 0
4:35 am 04:35 Clear 35 1.4 28 -2.1 78 78 NNW 8 13 29.54 1000 10 16.0934 0 0
4:55 am 04:55 Clear 34 1.1 28 -2.3 78 78 NW 8 13 29.56 1001 10 16.0934 0 0
5:15 am 05:15 Clear 33 0.6 28 -2.5 80 80 NNW 6 9 29.57 1001 10 16.0934 0 0
5:35 am 05:35 Clear 33 0.5 27 -2.6 80 80 NNW 9 15 29.57 1001 10 16.0934 0 0
5:55 am 05:55 Clear 33 0.8 27 -2.6 78 78 NNW 12 19 29.58 1002 10 16.0934 0 0
6:15 am 06:15 Clear 35 1.4 28 -2.5 76 76 NNW 9 15 29.57 1001 10 16.0934 0 0
6:35 am 06:35 Clear 33 0.4 27 -2.8 79 79 NW 7 11 29.6 1002 10 16.0934 0 0
6:55 am 06:55 Clear 32 0 27 -3 80 80 WNW 7 11 29.61 1003 10 16.0934 0 0
7:15 am 07:15 Clear 31 -0.5 26 -3.1 83 83 WNW 8 13 29.63 1003 10 16.0934 0 0
7:35 am 07:35 Sunny 32 -0.2 27 -2.8 83 83 WNW 8 13 29.64 1004 10 16.0934 0 0
7:55 am 07:55 Sunny 33 0.3 27 -2.8 80 80 WNW 7 11 29.64 1004 10 16.0934 0 0
8:15 am 08:15 Sunny 34 1 28 -2.3 79 79 WNW 7 11 29.65 1004 10 16.0934 0 0
8:35 am 08:35 Sunny 35 1.8 29 -1.7 78 78 NNW 7 11 29.67 1005 10 16.0934 0 0
8:55 am 08:55 Sunny 39 3.7 30 -1.2 71 71 NNW 14 22 29.67 1005 10 16.0934 0 0
9:15 am 09:15 Sunny 36 2.3 29 -1.7 75 75 N 24 39 29.72 1007 10 16.0934 0 0
9:35 am 09:35 Partly Cloudy 32 0 25 -3.8 76 76 N 24 39 29.77 1008 10 16.0934 0 0
9:55 am 09:55 Partly Cloudy 28 -2 21 -6.1 74 74 N 25 41 29.83 1010 10 16.0934 0 0
10:15 am 10:15 Sunny 28 -2.3 21 -6 76 76 N 23 37 29.84 1010 10 16.0934 0 0
10:35 am 10:35 Sunny 27 -2.8 19 -7.3 71 71 N 28 44 29.86 1011 10 16.0934 0 0
10:55 am 10:55 Sunny 27 -2.7 18 -7.7 69 69 N 24 39 29.87 1012 10 16.0934 0 0
11:15 am 11:15 Sunny 27 -2.8 17 -8.5 65 65 N 23 37 29.89 1012 10 16.0934 0 0
11:35 am 11:35 Sunny 28 -2.1 17 -8.1 64 64 N 21 33 29.9 1013 10 16.0934 0 0
11:55 am 11:55 Sunny 29 -1.9 17 -8.6 61 61 N 18 30 29.91 1013 10 16.0934 0 0
12:15 pm 12:15 Sunny 28 -2.3 15 -9.2 60 60 N 22 35 29.94 1014 10 16.0934 0 0
12:35 pm 12:35 Mostly Cloudy 30 -1.3 16 -8.7 58 58 N 18 30 29.94 1014 10 16.0934 0 0
12:55 pm 12:55 Cloudy 28 -2 15 -9.5 57 57 N 24 39 29.94 1014 10 16.0934 0 0
1:15 pm 13:15 Cloudy 29 -1.4 16 -8.8 58 58 N 20 31 29.95 1014 10 16.0934 0 0
1:35 pm 13:35 Partly Cloudy 28 -2.1 15 -9.6 57 57 N 28 44 29.95 1014 10 16.0934 0 0
1:55 pm 13:55 Sunny 28 -2.4 14 -9.9 57 57 N 26 43 29.96 1014 10 16.0934 0 0
2:15 pm 14:15 Sunny 28 -2.2 14 -9.8 56 56 N 24 39 29.97 1015 10 16.0934 0 0
2:35 pm 14:35 Sunny 28 -2 15 -9.7 56 56 N 18 30 29.97 1015 10 16.0934 0 0
2:55 pm 14:55 Sunny 29 -1.8 15 -9.3 57 57 N 23 37 29.96 1015 10 16.0934 0 0
3:15 pm 15:15 Sunny 29 -1.8 15 -9.2 57 57 N 21 33 29.96 1015 10 16.0934 0 0
3:35 pm 15:35 Sunny 28 -2 15 -9.6 56 56 N 21 33 29.97 1015 10 16.0934 0 0
3:55 pm 15:55 Sunny 28 -2.5 14 -10.1 56 56 N 23 37 29.98 1015 10 16.0934 0 0
4:15 pm 16:15 Sunny 27 -2.8 14 -10.2 57 57 N 20 31 29.99 1016 10 16.0934 0 0
4:35 pm 16:35 Sunny 27 -2.6 13 -10.3 56 56 N 17 28 30.02 1017 10 16.0934 0 0
4:55 pm 16:55 Sunny 27 -2.8 13 -10.5 56 56 N 13 20 30.04 1017 10 16.0934 0 0
5:15 pm 17:15 Sunny 26 -3.2 13 -10.7 57 57 N 13 20 30.08 1018 10 16.0934 0 0
5:35 pm 17:35 Sunny 26 -3.6 13 -10.7 58 58 N 7 11 30.09 1019 10 16.0934 0 0
6:15 pm 18:15 Clear 24 -4.5 12 -10.9 61 61 N 10 17 30.11 1020 10 16.0934 0 0
6:35 pm 18:35 Clear 23 -4.8 12 -11 62 62 N 9 15 30.11 1020 10 16.0934 0 0
6:55 pm 18:55 Partly Cloudy 23 -5 13 -10.8 64 64 N 7 11 30.12 1020 10 16.0934 0 0
7:15 pm 19:15 Mostly Cloudy 23 -4.9 13 -10.5 65 65 NNE 9 15 30.13 1020 10 16.0934 0 0
7:35 pm 19:35 Cloudy 23 -5 13 -10.8 64 64 NNE 14 22 30.13 1020 10 16.0934 0 0
7:55 pm 19:55 Cloudy 23 -5.2 12 -11.2 63 63 NNE 13 20 30.15 1021 10 16.0934 0 0
8:15 pm 20:15 Cloudy 22 -5.6 11 -11.4 64 64 NNE 12 19 30.15 1021 10 16.0934 0 0
8:35 pm 20:35 Cloudy 22 -5.8 11 -11.7 63 63 NNE 9 15 30.14 1021 10 16.0934 0 0
8:55 pm 20:55 Cloudy 21 -6 11 -11.8 64 64 NNE 13 20 30.15 1021 10 16.0934 0 0
9:15 pm 21:15 Cloudy 21 -6.1 11 -11.9 64 64 NNE 13 20 30.14 1021 10 16.0934 0 0
9:35 pm 21:35 Cloudy 21 -6.3 10 -12 64 64 NNE 13 20 30.16 1021 10 16.0934 0 0
9:55 pm 21:55 Cloudy 20 -6.5 10 -12.1 65 65 NNE 14 22 30.16 1021 10 16.0934 0 0
10:15 pm 22:15 Cloudy 20 -6.6 10 -12.5 63 63 NNE 15 24 30.16 1021 10 16.0934 0 0
10:35 pm 22:35 Cloudy 19 -7 9 -12.9 63 63 NNE 16 26 30.14 1021 10 16.0934 0 0
10:55 pm 22:55 Cloudy 19 -7 8 -13.1 62 62 NNE 18 30 30.15 1021 10 16.0934 0 0
11:15 pm 23:15 Cloudy 19 -7.1 9 -12.9 64 64 NNE 14 22 30.15 1021 10 16.0934 0 0
11:35 pm 23:35 Cloudy 19 -7.5 8 -13.1 65 65 NNE 13 20 30.19 1022 10 16.0934 0 0
11:55 pm 23:55 Cloudy 19 -7.5 9 -13 65 65 NNE 16 26 30.18 1022 10 16.0934 0 0

Powered by AerisWeather